Wind_Speed
10 9 6 3 1 1 1 3 3 6 3 2 5 2 7 6 2 3 12 12 20 19 17 16 15 15 14 13 14 14 12 13 13 13 13 15 15 15 14 13 13 13 12 11 13 14 13 14 14
12 6 1 1 1 3 3 3 8 3 6 12 6 5 5 4 4 11 10 20 21 19 17 16 15 15 15 15 14 14 14 13 14 14 15 15 14 14 14 14 13 13 13 12 12 12 12 11 12
7 2 1 1 1 1 2 3 12 11 6 4 5 5 3 4 11 12 13 25 21 19 16 15 16 15 14 14 13 13 14 14 15 15 15 14 13 13 12 13 13 12 11 11 11 11 11 11 10
1 1 0 0 2 1 4 6 11 10 6 7 10 7 4 9 11 9 27 23 21 20 17 16 16 15 14 14 13 12 14 14 13 14 13 12 12 12 11 11 11 11 10 10 10 11 10 10 10
1 0 1 1 2 2 6 9 3 4 5 5 3 4 5 3 13 26 25 22 22 20 18 15 15 14 14 12 12 12 12 12 13 13 12 11 9 10 11 10 9 9 8 9 9 10 11 11 10
2 2 2 3 6 6 6 7 3 5 6 8 10 7 2 15 26 22 23 21 20 19 18 15 14 13 13 13 12 12 12 11 11 11 10 10 9 8 8 8 9 8 7 7 8 9 10 11 11
1 1 1 3 6 4 3 3 4 4 8 6 8 6 4 7 19 23 21 21 19 17 18 16 14 12 11 12 11 11 10 10 9 8 8 8 8 7 7 6 7 8 8 9 8 9 10 10 8
2 1 3 4 3 4 2 2 5 5 4 5 11 6 9 8 20 21 20 19 17 17 16 15 15 13 12 12 11 10 9 8 8 7 6 6 6 6 8 8 8 9 10 10 11 9 10 9 8
1 4 3 3 2 5 4 3 1 4 7 1 3 6 12 23 23 20 17 16 17 16 15 14 15 14 13 12 11 11 9 7 6 5 5 4 4 7 8 8 8 11 11 12 13 11 10 9 8
2 3 5 3 4 3 13 5 1 5 4 8 13 16 24 23 23 19 15 14 17 17 16 15 14 14 13 13 12 11 10 7 6 6 6 5 5 7 9 9 10 10 11 12 13 11 10 11 8
4 4 4 4 5 5 7 11 6 10 5 1 16 15 17 19 16 15 15 18 24 20 17 15 14 13 13 11 11 10 9 8 6 6 6 6 8 11 11 12 14 13 13 14 15 14 13 10 6
4 5 5 7 6 6 7 5 5 7 3 1 12 17 15 13 13 15 16 19 19 19 18 16 15 13 11 10 9 9 8 6 7 9 8 9 10 10 10 10 13 12 13 16 15 14 11 8 6
2 4 4 4 8 6 11 8 8 2 4 11 14 15 13 12 14 16 20 19 17 19 18 18 16 14 12 9 9 10 8 6 5 7 11 9 11 9 5 10 11 12 13 14 14 12 10 8 5
2 8 7 5 7 5 7 3 1 2 2 15 16 14 13 12 15 13 15 19 19 20 20 18 17 14 11 9 10 9 7 5 5 9 9 11 9 8 6 11 11 12 11 10 11 10 8 6 6
7 6 5 3 2 4 10 2 5 10 5 14 16 13 13 13 15 19 25 23 23 23 21 19 16 15 11 10 10 10 7 5 7 9 7 8 8 8 9 9 11 11 11 11 9 9 8 8 9
3 4 3 3 3 4 3 4 10 10 11 14 15 14 13 10 19 22 27 27 25 24 22 20 17 15 13 12 9 9 8 8 7 7 9 9 8 8 10 10 11 10 9 8 8 8 7 6 7
5 2 2 2 5 6 4 4 5 8 8 8 16 15 14 12 14 21 29 29 28 25 22 21 19 17 14 12 9 8 8 10 9 7 5 6 7 8 11 10 10 9 7 6 6 6 6 5 5
4 3 1 4 4 4 7 5 5 12 10 10 12 13 14 14 16 22 29 29 29 28 24 22 20 18 15 14 11 8 11 11 10 8 5 8 8 10 11 12 12 10 6 5 6 7 8 5 7
4 4 3 2 4 4 7 3 10 13 10 10 7 14 13 13 18 24 27 29 29 28 28 27 24 21 19 18 13 10 12 13 13 10 8 12 12 10 9 11 13 10 8 5 4 6 5 4 5
3 1 1 1 4 3 3 6 4 11 14 12 12 9 15 11 9 17 23 27 30 32 31 30 28 24 22 19 15 9 11 14 13 12 11 13 13 11 10 10 9 9 9 9 9 7 5 3 5
2 3 2 2 4 2 5 5 5 6 9 9 9 8 7 13 13 12 18 26 29 31 34 33 31 27 23 20 15 10 10 14 13 13 12 12 10 12 12 12 9 10 12 11 10 8 7 4 6
3 7 3 7 3 2 1 4 5 8 15 11 14 14 14 13 15 15 21 23 27 34 37 34 30 28 25 21 17 14 15 15 16 15 14 13 10 14 12 10 8 7 12 13 10 9 7 6 6
6 7 5 4 3 2 2 2 6 9 11 19 19 17 17 16 17 18 23 30 34 30 37 37 30 28 26 24 20 16 18 18 19 16 14 12 11 15 12 10 10 9 8 13 13 10 8 8 7
3 4 7 5 3 2 6 5 5 6 14 13 14 15 17 16 18 18 30 31 30 31 32 36 32 30 28 28 23 19 15 16 21 17 15 15 13 13 11 9 10 10 6 7 11 10 8 7 7
5 6 2 2 1 5 3 2 10 4 6 10 19 18 18 17 16 16 17 25 28 29 33 34 36 33 30 30 27 23 17 15 22 20 18 18 16 14 13 10 7 8 6 6 7 8 10 9 7
7 9 5 6 4 4 3 6 6 9 8 8 12 20 17 18 17 19 21 28 30 31 33 35 35 36 33 32 30 26 23 18 20 21 20 18 20 16 12 10 11 9 8 7 7 8 8 9 10
4 4 7 6 2 1 4 7 9 8 6 7 11 16 20 19 19 20 22 29 32 33 35 36 36 37 37 35 31 29 26 21 18 22 22 20 18 17 14 12 12 11 10 9 9 9 8 9 10
9 8 4 2 7 5 4 4 6 9 8 3 8 15 16 17 17 16 16 26 28 30 32 32 37 39 41 39 35 33 31 25 19 18 23 23 22 18 17 16 15 14 14 12 12 11 10 10 9
2 3 4 5 4 6 1 6 7 8 5 5 7 8 13 16 17 17 17 26 27 28 31 31 30 32 33 38 37 35 34 30 24 21 22 24 26 23 19 18 19 19 19 17 16 15 13 13 13
7 9 7 5 4 1 4 7 4 8 5 6 6 8 9 13 16 13 16 25 27 27 30 34 32 34 37 38 36 38 35 33 29 26 24 22 22 23 21 20 20 21 22 23 20 19 19 18 18
Wind_Direction
143 150 140 137 76 88 341 56 94 98 92 331 130 125 115 24 72 176 159 147 151 148 147 139 136 133 133 130 131 138 131 126 125 122 118 115 110 111 110 107 106 107 107 109 109 109 107 116 116
140 146 248 39 82 73 307 346 123 123 129 101 90 86 55 71 72 117 130 155 152 147 144 145 140 138 135 138 136 136 133 128 124 121 120 118 117 117 116 113 110 109 110 118 117 116 115 115 115
138 105 7 343 44 112 130 61 117 119 133 108 105 69 74 87 109 137 153 155 151 148 147 143 141 138 136 135 134 130 127 130 130 124 122 124 119 118 118 116 115 114 115 117 122 126 119 116 117
89 163 334 153 42 62 128 139 125 123 63 59 102 71 67 135 143 159 150 154 151 146 148 146 145 141 138 134 132 133 130 129 129 122 126 129 126 128 125 117 118 119 120 119 121 120 117 119 109
120 139 329 144 39 51 98 138 145 85 93 92 107 92 87 46 134 146 152 155 154 151 148 148 144 144 134 131 134 129 120 122 120 126 123 125 122 122 115 111 109 117 117 122 120 116 120 115 105
77 66 22 38 94 84 88 47 36 76 94 119 93 93 61 135 132 149 154 158 157 152 150 152 149 140 139 138 131 133 130 129 123 126 129 130 129 124 124 134 128 128 130 116 111 116 120 116 106
95 74 47 326 96 56 61 9 41 40 103 75 131 104 115 137 140 154 159 161 159 157 151 155 148 141 141 132 131 131 131 132 133 129 133 132 131 132 130 133 134 140 141 137 134 135 139 134 120
109 106 21 29 56 67 52 76 137 88 52 92 144 153 158 164 146 154 158 161 162 164 161 159 154 148 149 141 137 136 134 134 132 132 134 128 130 135 134 131 148 150 158 163 157 151 152 143 118
309 47 3 344 86 117 57 126 340 68 128 12 119 116 124 141 152 150 158 161 163 168 168 165 161 155 154 146 143 139 138 139 139 138 130 134 137 111 110 115 131 147 156 164 166 158 155 149 127
86 156 193 219 137 116 75 57 280 108 50 68 89 98 124 139 147 148 166 171 174 176 177 172 168 163 161 156 155 151 150 147 148 150 149 140 132 110 108 112 118 131 150 157 157 158 154 158 141
170 199 145 179 134 109 101 46 33 123 68 153 145 138 144 148 152 158 179 182 182 176 180 178 170 170 169 169 168 163 156 153 155 158 153 148 140 128 119 117 123 131 141 148 155 158 157 159 156
188 199 162 167 151 125 124 112 65 40 13 170 148 146 151 158 164 170 175 189 192 183 181 181 171 174 172 172 168 162 159 162 157 159 162 157 147 135 121 120 112 122 134 143 150 155 158 165 170
208 123 85 138 164 113 118 110 125 56 5 135 143 152 162 167 177 179 180 186 190 187 180 178 169 168 170 168 170 173 162 160 152 162 173 169 159 145 127 139 127 124 131 143 151 158 163 171 176
128 90 105 111 114 108 111 141 336 122 31 146 155 167 170 178 182 175 187 184 189 187 178 178 174 172 179 174 172 174 169 177 165 158 161 163 168 177 151 159 153 145 147 154 154 160 171 189 210
126 101 85 44 131 105 112 27 232 158 182 154 165 173 178 190 182 188 191 188 189 184 179 183 184 180 188 186 181 188 180 166 167 169 160 176 188 169 177 169 167 165 173 186 192 197 207 226 248
47 49 97 194 184 148 131 248 206 161 174 185 175 177 186 188 195 199 196 194 194 188 186 179 187 187 178 187 178 169 172 177 176 168 172 174 172 176 171 169 150 155 170 187 197 206 215 230 248
18 227 135 201 188 153 168 256 166 170 194 212 184 181 187 192 201 198 199 201 195 196 191 189 183 189 179 170 185 189 201 187 184 189 176 175 171 165 164 162 155 160 167 179 198 206 216 236 247
177 139 183 229 200 171 203 239 168 182 194 211 192 189 188 193 200 197 201 202 200 198 198 193 193 192 189 174 175 176 194 205 203 198 185 183 177 176 166 168 170 172 188 205 204 210 213 238 266
146 163 201 222 168 143 223 258 180 190 195 204 206 196 195 195 201 193 200 204 203 205 200 196 196 195 189 181 178 182 186 200 199 190 179 160 160 167 174 168 183 189 176 162 166 165 180 223 238
184 188 354 95 153 157 207 261 173 193 201 199 194 204 198 194 185 191 185 197 206 206 205 198 195 195 196 193 191 197 188 192 197 191 184 171 176 178 187 191 184 191 191 186 180 171 153 161 175
243 163 193 209 144 265 132 294 198 206 208 209 208 197 209 190 183 189 183 187 195 204 205 203 197 195 196 201 197 198 183 187 191 198 195 189 197 197 186 191 195 210 215 203 195 200 202 174 205
233 184 206 130 120 231 213 275 237 200 207 215 217 205 206 197 191 180 188 187 190 202 205 206 205 200 197 201 204 208 198 190 201 206 201 200 203 191 180 187 201 206 202 209 209 212 226 240 234
225 165 182 143 126 46 199 105 267 167 212 222 218 214 204 193 188 185 187 190 196 194 201 207 206 201 201 199 204 210 210 213 210 206 201 204 193 189 195 200 205 204 203 212 218 223 234 245 252
171 95 50 53 90 334 227 172 253 194 207 212 222 216 200 191 191 187 190 191 191 193 197 205 203 204 202 199 206 208 211 210 209 204 204 199 193 190 200 209 215 212 219 220 221 228 236 245 256
100 83 359 1 29 221 263 167 246 226 213 198 196 203 199 188 186 183 183 188 191 186 193 202 203 208 203 203 207 210 216 218 210 212 213 205 204 207 209 217 228 228 241 254 240 244 242 248 261
176 153 158 178 196 251 100 238 251 218 230 218 203 195 186 187 185 185 189 187 188 189 193 195 201 208 208 207 207 210 216 224 224 226 226 223 220 223 219 231 236 241 251 264 264 264 255 255 262
188 157 180 104 26 64 232 290 302 281 223 215 188 168 184 191 187 186 187 189 189 190 193 194 198 206 212 211 210 210 213 220 227 228 232 235 233 230 229 246 237 249 254 263 271 266 261 262 263
159 169 102 359 164 205 278 267 241 305 298 328 190 179 182 180 187 178 182 188 192 192 193 197 198 203 212 213 215 212 213 217 225 229 228 237 241 238 234 237 242 248 252 255 260 264 262 258 265
91 164 65 126 141 166 215 262 222 264 285 209 197 174 164 171 183 180 175 181 187 191 188 193 196 200 207 216 216 216 215 218 223 225 232 235 237 240 236 239 246 250 251 251 254 260 262 265 268
163 179 159 134 223 213 165 261 332 285 310 184 190 167 172 166 176 176 167 165 175 185 188 190 193 198 205 215 218 218 219 222 224 229 231 235 237 234 234 239 247 258 259 250 252 259 260 262 266
Height
770 772 773 774 791 792 790 781 767 778 780 772 772 779 791 793 797 816 799 801 803 806 808 811 812 814 815 817 818 819 820 821 822 822 823 824 826 828 829 829 831 832 833 833 834 835 835 836 836
770 773 774 775 794 802 797 772 777 772 773 770 775 780 789 799 793 797 801 804 805 807 810 812 813 815 816 818 819 820 821 822 823 824 825 827 828 830 831 832 833 834 835 835 836 837 838 838 839
771 773 777 783 791 799 796 775 774 772 768 771 782 781 789 798 796 799 800 804 807 809 812 814 815 817 818 819 821 822 823 824 825 827 828 829 829 831 833 835 836 836 837 837 839 840 840 841 843
771 773 776 787 788 774 776 775 770 772 770 772 779 794 792 795 798 800 803 806 808 811 813 815 817 818 820 822 822 824 824 827 829 830 831 831 832 834 835 836 837 839 839 841 841 842 843 843 846
772 774 787 785 781 773 767 766 767 776 777 780 780 799 799 800 799 802 805 809 811 813 815 817 819 821 822 823 825 827 828 830 831 832 833 835 835 836 837 837 839 841 842 843 844 845 845 847 848
775 778 791 796 781 772 770 773 776 777 779 781 789 795 804 801 801 805 808 811 814 815 817 819 821 823 824 825 827 828 830 831 832 834 835 836 836 837 838 838 840 842 843 845 846 847 849 850 851
777 785 796 790 782 782 780 775 781 783 783 785 782 800 804 805 805 806 810 812 815 818 819 821 823 825 827 828 830 831 832 833 834 836 836 837 838 838 839 840 841 843 845 847 847 849 851 853 854
773 780 789 787 786 796 780 779 776 780 787 779 781 803 805 803 806 809 812 814 817 819 821 823 825 827 829 830 832 833 833 834 835 837 838 838 838 839 840 840 842 844 846 847 849 852 854 855 856
771 790 798 793 791 790 774 783 775 775 783 780 780 788 794 802 806 810 814 817 818 820 822 824 827 829 830 831 832 834 834 835 837 838 839 840 839 841 842 842 843 845 847 848 851 854 856 857 858
779 793 788 778 781 785 780 782 778 784 788 793 790 793 798 804 806 810 813 816 817 820 822 825 828 830 831 832 833 834 835 837 838 839 840 841 842 843 843 844 845 847 848 850 853 856 858 859 860
777 787 775 775 773 771 783 783 778 785 795 792 796 797 800 804 807 810 813 814 815 818 822 825 828 830 831 833 834 836 837 838 839 840 841 842 843 844 846 847 847 849 850 852 854 857 860 861 862
780 769 768 774 772 773 782 784 789 790 795 790 794 797 800 804 808 809 813 815 817 819 822 825 828 830 832 833 836 837 837 838 839 841 842 844 845 847 848 849 850 851 852 853 856 858 861 863 864
771 770 771 770 770 773 781 786 787 792 789 788 796 800 803 804 808 809 811 815 818 820 822 825 827 831 832 834 836 838 839 840 841 842 843 845 847 848 850 851 852 853 855 857 859 861 863 864 866
767 770 775 776 776 779 790 790 785 790 786 790 795 801 805 805 807 811 813 814 817 821 822 826 828 831 833 835 837 838 840 841 842 843 844 846 849 850 851 852 853 855 858 860 862 864 865 867 868
768 783 782 785 782 785 784 798 794 787 789 791 795 800 804 805 808 809 811 812 815 819 822 826 829 831 833 835 837 839 841 841 843 845 846 847 849 850 852 853 854 856 859 862 864 865 865 866 867
777 785 802 787 784 785 788 804 787 786 793 793 794 798 802 805 805 807 810 811 815 817 820 823 828 831 833 836 837 839 842 843 843 845 847 848 849 851 852 854 855 857 860 862 864 865 865 866 866
790 803 800 793 779 785 792 799 789 789 793 794 793 797 799 804 805 805 807 812 814 818 821 823 826 830 833 836 838 839 841 843 844 845 847 848 849 851 853 855 856 858 860 862 863 864 865 865 865
798 799 797 795 788 786 795 797 792 789 792 791 792 794 797 800 801 803 805 809 813 816 820 823 826 829 833 836 838 840 841 843 844 845 847 849 850 852 853 855 857 859 861 862 862 863 864 865 866
777 786 791 788 784 790 794 792 793 789 791 790 793 791 793 795 796 800 802 806 811 815 819 821 824 828 831 835 837 840 841 843 845 846 847 848 851 853 854 855 857 858 860 861 862 863 864 864 865
776 781 788 788 784 788 794 793 788 787 784 786 787 789 787 792 795 796 801 804 807 811 816 820 823 827 830 834 837 839 840 842 845 847 848 849 851 853 854 856 857 858 859 861 862 864 864 865 865
778 784 784 787 788 785 794 798 790 784 781 784 781 782 783 785 790 793 798 801 804 808 812 816 820 825 829 833 836 838 840 842 845 847 848 850 851 852 854 856 857 857 859 861 862 863 864 864 864
787 769 770 788 795 812 788 817 795 784 782 781 777 777 777 779 782 787 792 797 801 803 809 814 818 821 827 831 835 837 838 840 843 845 847 849 851 852 854 855 857 857 858 860 861 862 863 863 864
775 760 768 779 798 798 800 816 790 780 788 774 768 768 767 769 774 780 784 790 793 801 805 810 814 818 822 828 832 836 837 839 841 844 847 849 850 852 854 856 857 858 858 859 860 861 861 862 863
754 764 785 797 806 827 798 805 790 786 764 762 762 762 761 763 767 771 777 783 791 796 802 807 811 815 819 824 829 832 835 837 840 843 845 847 849 851 853 855 856 857 858 858 859 860 861 861 861
765 785 819 826 832 828 798 803 775 754 747 744 748 752 753 756 762 768 775 780 786 791 797 803 806 812 815 820 825 829 832 834 838 840 842 844 846 849 851 853 854 855 856 857 858 858 859 859 860
778 784 819 825 833 816 801 804 769 738 732 731 730 733 744 750 754 760 765 771 779 785 791 796 802 808 812 816 821 826 829 831 834 838 840 841 843 846 848 850 852 853 855 855 856 856 857 857 859
777 791 777 808 815 818 802 780 748 729 731 731 731 734 737 743 746 751 760 766 772 778 785 790 796 804 809 812 817 822 826 829 831 834 838 841 842 844 847 849 850 852 853 854 854 855 856 857 858
761 765 796 814 825 826 806 791 782 748 735 731 731 731 732 736 742 747 756 763 770 775 781 788 791 797 803 809 813 818 822 825 829 832 835 838 841 843 845 848 849 850 852 852 853 854 855 855 855
771 776 789 791 805 819 815 799 753 743 735 734 730 728 728 731 736 738 746 756 766 771 775 782 789 795 800 805 809 814 818 822 826 828 832 835 838 841 842 845 847 848 849 850 851 853 854 853 854
755 767 771 800 801 807 803 788 737 738 734 731 731 724 724 725 729 735 741 750 759 767 772 775 781 787 793 798 803 809 814 819 822 825 827 831 833 836 839 841 843 844 845 847 849 850 851 851 852